• en France
  • Liste des pays
  • À 7 jours
  • Température de l'eau
  • Carte satellitaire
  • Carte météo
  • Widgets météo
  • user-avatar
    Se connecter

    Météo par heure à Medellín

    Ce jour, 18 Décembre, Lundi

    Heure Température Précipitation Vent Pression Humidité
    00:00 +12°C° 0 mm 1 m/s 584 mmHg 89%
    01:00 +12°C° 0 mm 1 m/s 584 mmHg 88%
    02:00 +12°C° 0 mm 1 m/s 584 mmHg 87%
    03:00 +11°C° 0 mm 1 m/s 583 mmHg 86%
    04:00 +11°C° 0 mm 1 m/s 583 mmHg 84%
    05:00 +11°C° 0 mm 1 m/s 584 mmHg 83%
    06:00 +12°C° 0 mm 1 m/s 584 mmHg 81%
    07:00 +12°C° 0 mm 1 m/s 585 mmHg 80%
    08:00 +15°C° 0 mm 1 m/s 586 mmHg 67%
    09:00 +20°C° 0 mm 1 m/s 588 mmHg 54%
    10:00 +23°C° 0 mm 1 m/s 589 mmHg 41%
    11:00 +24°C° 0 mm 1 m/s 589 mmHg 37%
    12:00 +25°C° 0 mm 1 m/s 589 mmHg 33%
    13:00 +27°C° 0 mm 1 m/s 589 mmHg 29%
    14:00 +26°C° 0 mm 1 m/s 589 mmHg 31%
    15:00 +25°C° 0 mm 1 m/s 588 mmHg 34%
    16:00 +24°C° 0 mm 1 m/s 587 mmHg 36%
    17:00 +21°C° 0 mm 1 m/s 586 mmHg 49%
    18:00 +18°C° 0 mm 1 m/s 585 mmHg 61%
    19:00 +14°C° 0 mm 1 m/s 584 mmHg 74%
    20:00 +13°C° 0 mm 1 m/s 585 mmHg 77%
    21:00 +13°C° 0 mm 1 m/s 585 mmHg 80%
    22:00 +12°C° 0 mm 1 m/s 585 mmHg 84%
    23:00 +12°C° 0 mm 1 m/s 585 mmHg 84%

    Demain, 19 Décembre, Mardi

    Heure Température Précipitation Vent Pression Humidité
    00:00 +12°C° 0 mm 1 m/s 585 mmHg 84%
    01:00 +11°C° 0 mm 1 m/s 585 mmHg 85%
    02:00 +11°C° 0 mm 1 m/s 584 mmHg 85%
    03:00 +11°C° 0 mm 1 m/s 584 mmHg 85%
    04:00 +11°C° 0 mm 1 m/s 584 mmHg 85%
    05:00 +11°C° 0 mm 1 m/s 584 mmHg 84%
    06:00 +12°C° 0 mm 1 m/s 585 mmHg 82%
    07:00 +12°C° 0 mm 1 m/s 585 mmHg 81%
    08:00 +15°C° 0 mm 1 m/s 587 mmHg 69%
    09:00 +19°C° 0 mm 1 m/s 589 mmHg 57%
    10:00 +23°C° 0 mm 1 m/s 590 mmHg 45%
    11:00 +24°C° 0 mm 1 m/s 590 mmHg 41%
    12:00 +25°C° 0 mm 1 m/s 590 mmHg 37%
    13:00 +27°C° 0 mm 1 m/s 590 mmHg 32%
    14:00 +26°C° 0 mm 1 m/s 589 mmHg 36%
    15:00 +25°C° 0 mm 1 m/s 588 mmHg 39%
    16:00 +24°C° 0 mm 1 m/s 587 mmHg 43%
    17:00 +21°C° 0 mm 1 m/s 586 mmHg 56%
    18:00 +18°C° 0 mm 1 m/s 585 mmHg 70%
    19:00 +14°C° 0 mm 1 m/s 584 mmHg 83%
    20:00 +14°C° 0 mm 1 m/s 585 mmHg 86%
    21:00 +13°C° 0 mm 1 m/s 585 mmHg 89%
    22:00 +13°C° 0 mm 1 m/s 586 mmHg 92%
    23:00 +13°C° 0 mm 1 m/s 585 mmHg 92%

    Après-demain, 20 Décembre, Mercredi

    Heure Température Précipitation Vent Pression Humidité
    00:00 +13°C° 0 mm 1 m/s 585 mmHg 91%
    01:00 +11°C° 0 mm 0 m/s 585 mmHg 91%
    02:00 +12°C° 0 mm 1 m/s 585 mmHg 90%
    03:00 +12°C° 0 mm 1 m/s 585 mmHg 90%
    04:00 +12°C° 0 mm 1 m/s 584 mmHg 89%
    05:00 +12°C° 0 mm 1 m/s 585 mmHg 88%
    06:00 +12°C° 0 mm 1 m/s 585 mmHg 87%
    07:00 +12°C° 0 mm 1 m/s 586 mmHg 86%
    08:00 +15°C° 0 mm 1 m/s 587 mmHg 74%
    09:00 +19°C° 0 mm 1 m/s 588 mmHg 62%
    10:00 +22°C° 0 mm 1 m/s 589 mmHg 50%
    11:00 +23°C° 0 mm 1 m/s 589 mmHg 46%
    12:00 +25°C° 0 mm 1 m/s 589 mmHg 41%
    13:00 +26°C° 0 mm 1 m/s 589 mmHg 37%
    14:00 +25°C° 0 mm 1 m/s 588 mmHg 41%
    15:00 +24°C° 0 mm 1 m/s 587 mmHg 46%
    16:00 +23°C° 0 mm 1 m/s 586 mmHg 50%
    17:00 +21°C° 0,1 mm 1 m/s 586 mmHg 62%
    18:00 +18°C° 0,1 mm 1 m/s 585 mmHg 75%
    19:00 +15°C° 0,1 mm 1 m/s 584 mmHg 87%
    20:00 +14°C° 0,1 mm 1 m/s 585 mmHg 89%
    21:00 +14°C° 0,1 mm 1 m/s 585 mmHg 92%
    22:00 +14°C° 0,1 mm 1 m/s 585 mmHg 94%
    23:00 +13°C° 0 mm 1 m/s 585 mmHg 94%

    21 Décembre, Jeudi

    Heure Température Précipitation Vent Pression Humidité
    00:00 +12°C° 0 mm 0 m/s 585 mmHg 94%
    01:00 +12°C° 0 mm 0 m/s 584 mmHg 93%
    02:00 +12°C° 0 mm 0 m/s 584 mmHg 93%
    03:00 +11°C° 0 mm 0 m/s 584 mmHg 92%
    04:00 +11°C° 0 mm 0 m/s 584 mmHg 92%
    05:00 +11°C° 0 mm 0 m/s 584 mmHg 91%
    06:00 +11°C° 0 mm 0 m/s 585 mmHg 90%
    07:00 +12°C° 0 mm 0 m/s 585 mmHg 89%
    08:00 +15°C° 0 mm 1 m/s 586 mmHg 77%
    09:00 +19°C° 0 mm 1 m/s 588 mmHg 65%
    10:00 +22°C° 0 mm 1 m/s 589 mmHg 53%
    11:00 +23°C° 0 mm 1 m/s 589 mmHg 51%
    12:00 +23°C° 0 mm 1 m/s 588 mmHg 49%
    13:00 +24°C° 0 mm 1 m/s 588 mmHg 46%
    14:00 +24°C° 0,1 mm 1 m/s 587 mmHg 50%
    15:00 +23°C° 0,1 mm 1 m/s 587 mmHg 54%
    16:00 +22°C° 0,1 mm 1 m/s 586 mmHg 57%
    17:00 +20°C° 0,1 mm 1 m/s 585 mmHg 68%
    18:00 +18°C° 0,1 mm 1 m/s 585 mmHg 79%
    19:00 +15°C° 0,1 mm 1 m/s 584 mmHg 90%
    20:00 +14°C° 0,1 mm 1 m/s 584 mmHg 91%
    21:00 +14°C° 0,1 mm 1 m/s 585 mmHg 93%
    22:00 +14°C° 0,1 mm 1 m/s 585 mmHg 94%
    23:00 +13°C° 0,1 mm 1 m/s 585 mmHg 94%

    22 Décembre, Vendredi

    Heure Température Précipitation Vent Pression Humidité
    00:00 +12°C° 0,1 mm 0 m/s 585 mmHg 93%
    01:00 +12°C° 0,1 mm 0 m/s 584 mmHg 93%
    02:00 +12°C° 0 mm 0 m/s 584 mmHg 93%
    03:00 +11°C° 0 mm 0 m/s 584 mmHg 93%
    04:00 +11°C° 0 mm 0 m/s 584 mmHg 92%
    05:00 +11°C° 0 mm 0 m/s 584 mmHg 91%
    06:00 +12°C° 0 mm 0 m/s 585 mmHg 90%
    07:00 +12°C° 0 mm 0 m/s 585 mmHg 89%
    08:00 +15°C° 0 mm 1 m/s 587 mmHg 78%
    09:00 +19°C° 0 mm 1 m/s 588 mmHg 66%
    10:00 +22°C° 0 mm 1 m/s 589 mmHg 55%
    11:00 +23°C° 0 mm 1 m/s 589 mmHg 54%
    12:00 +23°C° 0 mm 1 m/s 588 mmHg 52%
    13:00 +24°C° 0 mm 1 m/s 588 mmHg 51%
    14:00 +23°C° 0,1 mm 1 m/s 587 mmHg 54%
    15:00 +23°C° 0,1 mm 1 m/s 587 mmHg 56%
    16:00 +23°C° 0,1 mm 1 m/s 587 mmHg 59%
    17:00 +20°C° 0,2 mm 1 m/s 586 mmHg 69%
    18:00 +18°C° 0,2 mm 1 m/s 586 mmHg 80%
    19:00 +15°C° 0,2 mm 1 m/s 585 mmHg 90%
    20:00 +15°C° 0,1 mm 1 m/s 585 mmHg 92%
    21:00 +14°C° 0,1 mm 1 m/s 586 mmHg 93%
    22:00 +14°C° 0,1 mm 1 m/s 586 mmHg 94%
    23:00 +14°C° 0 mm 1 m/s 586 mmHg 94%

    23 Décembre, Samedi

    Heure Température Précipitation Vent Pression Humidité
    00:00 +12°C° 0 mm 0 m/s 585 mmHg 94%
    01:00 +12°C° 0 mm 0 m/s 585 mmHg 94%
    02:00 +12°C° 0 mm 0 m/s 585 mmHg 94%
    03:00 +11°C° 0 mm 0 m/s 584 mmHg 94%
    04:00 +11°C° 0 mm 0 m/s 584 mmHg 93%
    05:00 +11°C° 0 mm 0 m/s 585 mmHg 92%
    06:00 +11°C° 0 mm 0 m/s 585 mmHg 91%
    07:00 +12°C° 0 mm 1 m/s 586 mmHg 90%
    08:00 +15°C° 0 mm 1 m/s 587 mmHg 78%
    09:00 +19°C° 0 mm 1 m/s 588 mmHg 66%
    10:00 +22°C° 0 mm 1 m/s 589 mmHg 54%
    11:00 +23°C° 0 mm 1 m/s 589 mmHg 51%
    12:00 +23°C° 0 mm 1 m/s 589 mmHg 49%
    13:00 +24°C° 0 mm 1 m/s 588 mmHg 47%
    14:00 +24°C° 0,1 mm 1 m/s 588 mmHg 51%
    15:00 +23°C° 0,1 mm 1 m/s 587 mmHg 54%
    16:00 +23°C° 0,1 mm 1 m/s 586 mmHg 57%
    17:00 +20°C° 0,2 mm 1 m/s 586 mmHg 68%
    18:00 +18°C° 0,2 mm 1 m/s 585 mmHg 79%
    19:00 +15°C° 0,2 mm 1 m/s 584 mmHg 90%
    20:00 +15°C° 0,2 mm 1 m/s 585 mmHg 91%
    21:00 +14°C° 0,2 mm 1 m/s 585 mmHg 93%
    22:00 +14°C° 0,2 mm 1 m/s 585 mmHg 94%
    23:00 +14°C° 0,1 mm 1 m/s 585 mmHg 94%
    Voir plus